#timestamp,LO_Frequency,Hit,StdDev 
1655078415.1,286046997.8,N
1655078416.0,286046997.8,N
1655078435.8,286046997.6,N
1655078455.6,286046995.2,Y
1655078475.5,286046995.4,P
1655078495.3,286046995.2,N
1655078515.1,286046995.2,N
1655078535.9,286046996.1,N
1655078555.7,286046996.3,N
1655078575.5,286046994.1,Y
1655078595.4,286046997.1,P
1655078615.2,286046997.9,P
1655078635.0,286046996.1,P
1655078635.9,286046996.1,Y
1655078655.8,286046996.7,P
1655078675.6,286046996.9,P
1655078695.4,286046996.9,P
1655078715.3,286046997.4,Y
1655078735.1,286047001.2,P
1655078755.8,286047001.2,N
1655078775.7,286046999.1,N
1655078795.5,286046999.1,N
1655078815.3,286046996.5,N
1655078835.2,286046996.8,N
1655078855.0,286046996.6,N
1655078855.9,286046996.6,N
1655078875.7,286046996.5,N
1655078895.6,286046999.0,N
1655078915.4,286046999.3,N
1655078935.2,286046998.3,N
1655078955.1,286046998.6,N
1655078956.0,286046998.6,N
1655078975.8,286046997.4,N
1655078995.6,286046997.6,N
1655079015.5,286046997.3,N
1655079035.3,286046997.3,N
1655079055.1,286046997.3,N
1655079075.9,286046997.6,N
1655079095.7,286046995.3,Y
1655079115.5,286046999.4,P
1655079135.4,286046998.7,N
1655079155.2,286046998.5,N
1655079175.0,286047000.7,N
1655079175.9,286047000.7,N
1655079195.8,286047001.0,N
1655079215.6,286047000.8,N
1655079235.4,286047001.0,N
1655079255.3,286046998.5,N
1655079275.1,286046999.0,N
1655079276.0,286046999.0,N
1655079295.8,286046999.0,N
1655079315.7,286046998.6,N
1655079335.5,286047001.1,N
1655079355.3,286047001.0,N
1655079375.2,286047001.0,N
1655079395.9,286047000.3,N
1655079415.7,286046998.4,N
1655079435.6,286046998.8,N
1655079455.4,286046998.8,N
1655079475.2,286046999.2,N
1655079495.1,286046998.4,N
1655079496.0,286046998.4,N
1655079515.8,286047000.8,N
1655079535.6,286047000.5,N
1655079555.5,286046999.0,N
1655079575.3,286047000.6,N
1655079595.1,286047000.0,N
1655079615.9,286047002.6,N
1655079635.7,286047002.3,N
1655079655.5,286047002.1,N
1655079675.4,286047002.5,N
1655079695.2,286047004.4,Y
1655079715.0,286047003.4,P
1655079715.9,286047003.4,N
1655079735.8,286047005.7,P
1655079755.6,286047004.2,N
1655079775.4,286047005.0,N
1655079795.3,286047005.0,N
1655079815.1,286047005.5,Y
1655079835.8,286047001.6,P
1655079855.7,286047002.3,N
1655079875.5,286047001.3,N
1655079895.3,286047001.3,N
1655079915.2,286047004.0,Y
1655079935.0,286047000.7,P
1655079935.9,286047000.7,N
1655079955.7,286047000.9,N
1655079975.6,286047000.5,N
1655079995.4,286047000.9,N
1655080015.2,286047001.0,N
1655080035.1,286046998.8,N
1655080036.0,286046998.8,N
1655080055.8,286046998.9,N
1655080075.6,286046998.7,N
1655080095.5,286046999.3,N
1655080115.3,286046998.5,N
1655080135.1,286046998.9,N
1655080155.9,286046998.1,N
1655080175.7,286047000.2,N
1655080195.5,286047002.5,N
1655080215.4,286047002.2,N
1655080235.2,286047000.9,N
1655080255.0,286047000.4,N
1655080255.9,286047000.4,N
1655080275.8,286047002.3,N
1655080295.6,286047000.5,N
1655080315.4,286047001.6,N
1655080335.3,286047001.4,N
1655080355.1,286047006.0,Y
1655080375.8,286047002.2,P
1655080395.7,286046999.8,N
1655080415.5,286047002.3,N
1655080435.3,286047001.6,N
1655080455.2,286047001.4,N
1655080475.0,286047001.4,N
1655080475.9,286047001.4,N
1655080495.7,286047001.9,N
1655080515.6,286047000.2,N
1655080535.4,286047000.4,N
1655080555.2,286047002.0,N
1655080575.1,286047002.5,Y
1655080576.0,286047002.5,P
1655080595.8,286047000.4,N
1655080615.6,286046999.8,N
1655080635.5,286047000.3,N
1655080655.3,286047001.1,N
1655080675.1,286047001.6,N
1655080695.9,286047002.4,N
1655080715.7,286047002.2,N
1655080735.5,286047002.6,N
1655080755.4,286047002.6,N
1655080775.2,286047002.4,N
1655080795.0,286046999.7,N
1655080795.9,286046999.7,N
1655080815.8,286047002.6,N
1655080835.6,286047002.4,N
1655080855.4,286047002.8,N
1655080875.3,286047002.8,N
1655080895.1,286047000.1,N
1655080915.8,286047001.9,N
1655080935.7,286046999.7,N
1655080955.5,286047002.6,N
1655080975.3,286047002.4,N
1655080995.2,286047002.3,N
1655081015.0,286047001.9,N
1655081015.9,286047001.9,N
1655081035.7,286047001.3,N
1655081085.6,286047002.6,E
1655081095.5,286047000.9,N
1655081115.4,286046998.4,P
1655081135.2,286047000.9,N
1655081155.0,286046998.4,N
1655081155.9,286046998.4,N
1655081175.8,286046998.9,N
1655081195.6,286046998.6,N
1655081215.4,286046999.3,N
1655081235.3,286046998.5,N
1655081255.1,286047002.4,N
1655081256.0,286047002.4,N
1655081275.8,286047002.8,N
1655081295.7,286047002.3,N
1655081315.5,286047002.8,N
1655081335.3,286047004.4,N
1655081355.2,286047004.0,N
1655081375.9,286047000.2,N
1655081395.7,286047001.4,N
1655081415.6,286047001.9,N
1655081435.4,286047001.7,N
1655081455.2,286047002.2,N
1655081475.1,286047000.2,N
1655081476.0,286047000.2,N
1655081495.8,286046999.7,N
1655081515.6,286047002.7,N
1655081535.5,286047002.3,N
1655081555.3,286046999.8,N
1655081575.1,286047002.5,N
1655081595.9,286047001.9,N
1655081615.7,286047001.7,N
1655081635.5,286047004.3,N
1655081655.4,286047004.0,N
1655081675.2,286047001.8,N
1655081695.0,286047004.4,N
1655081695.9,286047004.4,N
1655081715.8,286047004.2,N
1655081735.6,286047002.0,N
1655081755.4,286047001.5,N
1655081775.2,286047001.9,N
1655081795.1,286047000.3,N
1655081796.0,286047000.3,N
1655081815.8,286046999.8,N
1655081835.6,286047002.2,N
1655081855.5,286047002.1,N
1655081875.3,286047002.6,N
1655081895.1,286047002.5,N
1655081915.9,286047002.6,N
1655081935.7,286047003.6,N
1655081955.5,286047002.5,N
1655081975.4,286047002.4,N
1655081995.2,286046999.8,N
